Starlink 31696

operational
NORAD ID: 59435 Int'l Des: 2024-065 Owner: SPXS Country: US Constellation: starlink
LEOCIRCULAR

About Starlink 31696

Description loading...

Live Position

Loading 3D Globe...

Upcoming Passes

Altitude History

Altitude vs Time

uPlot chart will show altitude changes over time

Two-Line Element Set

1 59435U 24065Q 25352.12899757 .00003004 00000-0 11353-3 0 9991
2 59435 53.1639 300.4085 0001590 86.1614 273.9569 15.30195648 96442
Epoch: Dec 18, 2025 • Age: 11 hours

Current Status

Altitude 478.5 km
Velocity 7.63 km/s
Sub-Earth Point 43.00°N, 39.96°E
Launch Date Apr 7, 2024
Age 1.6 years
Type internet

Technical Details

Classification Payload
Mass 730.00 kg
Dry Mass 700.00 kg
Total Mass 730.00 kg
Length 0.30 m
Diameter 4.10 m
Span 29.00 m
Shape Box + pan
Manufacturer SPXS
Bus Type Starlink V2M
Phase Status In Orbit
Owner/State SPXS/US

Large Constellations

Loading constellations...